,,Stat6,,Stat2,,Stat8,,Stat9,,Stat10,,Wind1,,Wind1,
time,status,PA1M_AVG,status,PR1M_SUM,status,RH1M_AVG,status,SR1M_AVG,status,TA1M_AVG,status,W1dAve1m,status,W1sAve1m,
2007-11-20, 00:00:00,VALID,918.912,VALID,0,VALID,100,VALID,-0.0169808,VALID,19.7477,VALID,58,VALID,0.290516,
2007-11-20, 00:01:00,VALID,918.888,VALID,0,VALID,100,VALID,-0.0169808,VALID,19.7445,VALID,63,VALID,0.606326,
2007-11-20, 00:02:00,VALID,918.878,VALID,0,VALID,100,VALID,-0.0169808,VALID,19.7218,VALID,64,VALID,0.48609,
2007-11-20, 00:03:00,VALID,918.853,VALID,0,VALID,100,VALID,-0.0339617,VALID,19.7148,VALID,68,VALID,0.568266,
2007-11-20, 00:04:00,VALID,918.833,VALID,0,VALID,100,VALID,-0.0509425,VALID,19.6926,VALID,69,VALID,0.594638,
2007-11-20, 00:05:00,VALID,918.811,VALID,0,VALID,100,VALID,-0.0509425,VALID,19.6696,VALID,69,VALID,0.375186,
2007-11-20, 00:06:00,VALID,918.796,VALID,0,VALID,100,VALID,-0.0339617,VALID,19.6793,VALID,69,VALID,0.109375,
2007-11-20, 00:07:00,VALID,918.778,VALID,0,VALID,100,VALID,-0.0169808,VALID,19.6689,VALID,69,VALID,0.160429,
2007-11-20, 00:08:00,VALID,918.759,VALID,0,VALID,100,VALID,-0.0169808,VALID,19.6664,VALID,69,VALID,0.44494,
2007-11-20, 00:09:00,VALID,918.736,VALID,0,VALID,100,VALID,0,VALID,19.6434,VALID,71,VALID,0.506324,
2007-11-20, 00:10:00,VALID,918.712,VALID,0,VALID,100,VALID,-0.0169808,VALID,19.6145,VALID,78,VALID,0.405362,
2007-11-20, 00:11:00,VALID,918.687,VALID,0,VALID,100,VALID,-0.0339617,VALID,19.5912,VALID,78,VALID,0.337391,
2007-11-20, 00:12:00,VALID,918.669,VALID,0,VALID,100,VALID,-0.0339617,VALID,19.5885,VALID,78,VALID,0.234028,
2007-11-20, 00:13:00,VALID,918.648,VALID,0,VALID,100,VALID,-0.0509425,VALID,19.5825,VALID,78,VALID,0.137649,
2007-11-20, 00:14:00,VALID,918.628,VALID,0,VALID,100,VALID,-0.0169808,VALID,19.579,VALID,78,VALID,0.238104,
2007-11-20, 00:15:00,VALID,918.62,VALID,0,VALID,100,VALID,0,VALID,19.5598,VALID,78,VALID,0.279652,
2007-11-20, 00:16:00,VALID,918.618,VALID,0,VALID,100,VALID,-0.0339617,VALID,19.5461,VALID,78,VALID,0.278846,
2007-11-20, 00:17:00,VALID,918.617,VALID,0,VALID,100,VALID,-0.0169808,VALID,19.5393,VALID,78,VALID,0.268043,
2007-11-20, 00:18:00,VALID,918.605,VALID,0,VALID,100,VALID,-0.0509425,VALID,19.5533,VALID,78,VALID,0.261347,
2007-11-20, 00:19:00,VALID,918.595,VALID,0,VALID,100,VALID,0,VALID,19.5625,VALID,78,VALID,0.376243,
2007-11-20, 00:20:00,VALID,918.598,VALID,0,VALID,100,VALID,0.0169808,VALID,19.5718,VALID,138,VALID,0.484722,
2007-11-20, 00:21:00,VALID,918.585,VALID,0,VALID,100,VALID,-0.0169808,VALID,19.5915,VALID,155,VALID,0.261242,
2007-11-20, 00:22:00,VALID,918.587,VALID,0,VALID,100,VALID,-0.0169808,VALID,19.6112,VALID,179,VALID,0.609947,
2007-11-20, 00:23:00,VALID,918.574,VALID,0,VALID,100,VALID,-0.0339617,VALID,19.6142,VALID,184,VALID,0.603051,
2007-11-20, 00:24:00,VALID,918.57,VALID,0,VALID,100,VALID,0,VALID,19.6107,VALID,186,VALID,0.580208,
2007-11-20, 00:25:00,VALID,918.579,VALID,0,VALID,100,VALID,-0.0339617,VALID,19.5947,VALID,186,VALID,0.478871,
2007-11-20, 00:26:00,VALID,918.568,VALID,0,VALID,100,VALID,-0.0509425,VALID,19.5878,VALID,186,VALID,0.426491,
2007-11-20, 00:27:00,VALID,918.582,VALID,0,VALID,100,VALID,-0.0339617,VALID,19.6042,VALID,186,VALID,0.116146,
2007-11-20, 00:28:00,VALID,918.573,VALID,0,VALID,100,VALID,-0.0339617,VALID,19.6177,VALID,186,VALID,0.0848722,
2007-11-20, 00:29:00,VALID,918.577,VALID,0,VALID,100,VALID,0,VALID,19.6269,VALID,186,VALID,0,
2007-11-20, 00:30:00,VALID,918.576,VALID,0,VALID,100,VALID,0,VALID,19.6299,VALID,186,VALID,0,
2007-11-20, 00:31:00,VALID,918.573,VALID,0,VALID,100,VALID,0,VALID,19.6432,VALID,186,VALID,0,
2007-11-20, 00:32:00,VALID,918.576,VALID,0,VALID,100,VALID,0,VALID,19.6461,VALID,186,VALID,0,
2007-11-20, 00:33:00,VALID,918.587,VALID,0,VALID,100,VALID,-0.0509425,VALID,19.6534,VALID,186,VALID,0.119731,
2007-11-20, 00:34:00,VALID,918.575,VALID,0,VALID,100,VALID,-0.0169808,VALID,19.6694,VALID,186,VALID,0.077381,
2007-11-20, 00:35:00,VALID,918.573,VALID,0,VALID,100,VALID,-0.0169808,VALID,19.6928,VALID,186,VALID,0.0223474,
2007-11-20, 00:36:00,VALID,918.57,VALID,0,VALID,100,VALID,-0.0679233,VALID,19.6796,VALID,186,VALID,0.161632,
2007-11-20, 00:37:00,VALID,918.571,VALID,0,VALID,100,VALID,-0.0849042,VALID,19.6736,VALID,186,VALID,0,
2007-11-20, 00:38:00,VALID,918.554,VALID,0,VALID,100,VALID,-0.0509425,VALID,19.6474,VALID,186,VALID,0,
2007-11-20, 00:39:00,VALID,918.55,VALID,0,VALID,100,VALID,-0.0509425,VALID,19.6337,VALID,186,VALID,0,
2007-11-20, 00:40:00,VALID,918.547,VALID,0,VALID,100,VALID,-0.0339617,VALID,19.6407,VALID,186,VALID,0,
2007-11-20, 00:41:00,VALID,918.547,VALID,0,VALID,100,VALID,-0.0339617,VALID,19.6339,VALID,186,VALID,0,
2007-11-20, 00:42:00,VALID,918.537,VALID,0,VALID,100,VALID,0.0169808,VALID,19.6297,VALID,186,VALID,0,
2007-11-20, 00:43:00,VALID,918.507,VALID,0,VALID,100,VALID,-0.0169808,VALID,19.6432,VALID,186,VALID,0,
2007-11-20, 00:44:00,VALID,918.489,VALID,0,VALID,100,VALID,0,VALID,19.6464,VALID,186,VALID,0.0180432,
2007-11-20, 00:45:00,VALID,918.466,VALID,0,VALID,100,VALID,0,VALID,19.6464,VALID,186,VALID,0.0802083,
2007-11-20, 00:46:00,VALID,918.457,VALID,0,VALID,100,VALID,-0.0169808,VALID,19.6661,VALID,186,VALID,0.292791,
2007-11-20, 00:47:00,VALID,918.434,VALID,0,VALID,100,VALID,0,VALID,19.6427,VALID,186,VALID,0.0912729,
2007-11-20, 00:48:00,VALID,918.422,VALID,0,VALID,100,VALID,0,VALID,19.6427,VALID,186,VALID,0,
2007-11-20, 00:49:00,VALID,918.417,VALID,0,VALID,100,VALID,0,VALID,19.6521,VALID,186,VALID,0,
2007-11-20, 00:50:00,VALID,918.426,VALID,0,VALID,100,VALID,0,VALID,19.6661,VALID,186,VALID,0,
2007-11-20, 00:51:00,VALID,918.416,VALID,0,VALID,100,VALID,-0.0169808,VALID,19.6394,VALID,186,VALID,0.0132631,
2007-11-20, 00:52:00,VALID,918.407,VALID,0,VALID,100,VALID,0,VALID,19.6464,VALID,186,VALID,0.123001,
2007-11-20, 00:53:00,VALID,918.401,VALID,0,VALID,100,VALID,-0.0169808,VALID,19.6394,VALID,186,VALID,0.00106534,
2007-11-20, 00:54:00,VALID,918.403,VALID,0,VALID,100,VALID,0,VALID,19.6496,VALID,186,VALID,0.00390625,
2007-11-20, 00:55:00,VALID,918.398,VALID,0,VALID,100,VALID,0,VALID,19.6726,VALID,186,VALID,0,
2007-11-20, 00:56:00,VALID,918.404,VALID,0,VALID,100,VALID,0,VALID,19.6756,VALID,186,VALID,0,
2007-11-20, 00:57:00,VALID,918.398,VALID,0,VALID,100,VALID,-0.0849042,VALID,19.6704,VALID,186,VALID,0.00130208,
2007-11-20, 00:58:00,VALID,918.389,VALID,0,VALID,100,VALID,-0.0679233,VALID,19.6669,VALID,186,VALID,0,
2007-11-20, 00:59:00,VALID,918.384,VALID,0,VALID,100,VALID,-0.101885,VALID,19.6599,VALID,186,VALID,0,
2007-11-20, 01:00:00,VALID,918.383,VALID,0,VALID,100,VALID,-0.101885,VALID,19.6893,VALID,186,VALID,0.0510417,
2007-11-20, 01:01:00,VALID,918.392,VALID,0,VALID,100,VALID,-0.101885,VALID,19.7025,VALID,186,VALID,0,
2007-11-20, 01:02:00,VALID,918.39,VALID,0,VALID,100,VALID,-0.101885,VALID,19.7255,VALID,186,VALID,0.0455412,
2007-11-20, 01:03:00,VALID,918.389,VALID,0,VALID,100,VALID,-0.0849042,VALID,19.7285,VALID,186,VALID,0,
2007-11-20, 01:04:00,VALID,918.389,VALID,0,VALID,100,VALID,-0.0849042,VALID,19.7285,VALID,186,VALID,0,
2007-11-20, 01:05:00,VALID,918.379,VALID,0,VALID,100,VALID,-0.0849042,VALID,19.7679,VALID,186,VALID,0,
2007-11-20, 01:06:00,VALID,918.39,VALID,0,VALID,100,VALID,-0.0849042,VALID,19.7769,VALID,186,VALID,0,
2007-11-20, 01:07:00,VALID,918.382,VALID,0,VALID,100,VALID,-0.0849042,VALID,19.761,VALID,186,VALID,0,
2007-11-20, 01:08:00,VALID,918.383,VALID,0,VALID,100,VALID,-0.0849042,VALID,19.7318,VALID,186,VALID,0,
2007-11-20, 01:09:00,VALID,918.385,VALID,0,VALID,100,VALID,-0.101885,VALID,19.7093,VALID,186,VALID,0,
2007-11-20, 01:10:00,VALID,918.371,VALID,0,VALID,100,VALID,-0.101885,VALID,19.6958,VALID,186,VALID,0,
2007-11-20, 01:11:00,VALID,918.368,VALID,0,VALID,100,VALID,-0.0849042,VALID,19.6861,VALID,186,VALID,0,
2007-11-20, 01:12:00,VALID,918.366,VALID,0,VALID,100,VALID,0,VALID,19.6881,VALID,186,VALID,0,
2007-11-20, 01:13:00,VALID,918.366,VALID,0,VALID,100,VALID,0.0169808,VALID,19.6978,VALID,186,VALID,0,
2007-11-20, 01:14:00,VALID,918.365,VALID,0,VALID,100,VALID,0.0169808,VALID,19.7011,VALID,186,VALID,0,
2007-11-20, 01:15:00,VALID,918.348,VALID,0,VALID,100,VALID,0,VALID,19.7208,VALID,186,VALID,0,
2007-11-20, 01:16:00,VALID,918.354,VALID,0,VALID,100,VALID,0,VALID,19.7143,VALID,186,VALID,0,
2007-11-20, 01:17:00,VALID,918.345,VALID,0,VALID,100,VALID,0.0169808,VALID,19.7143,VALID,186,VALID,0,
2007-11-20, 01:18:00,VALID,918.325,VALID,0,VALID,100,VALID,0,VALID,19.727,VALID,186,VALID,0,
2007-11-20, 01:19:00,VALID,918.305,VALID,0,VALID,100,VALID,0,VALID,19.7627,VALID,175,VALID,0.397675,
2007-11-20, 01:20:00,VALID,918.283,VALID,0,VALID,100,VALID,0.0169808,VALID,19.7792,VALID,129,VALID,0.581449,
2007-11-20, 01:21:00,VALID,918.27,VALID,0.2,VALID,100,VALID,0.0169808,VALID,19.7984,VALID,110,VALID,0.672433,
2007-11-20, 01:22:00,VALID,918.255,VALID,0,VALID,100,VALID,0.0169808,VALID,19.8179,VALID,95,VALID,0.425967,
2007-11-20, 01:23:00,VALID,918.261,VALID,0,VALID,100,VALID,0.0509425,VALID,19.8241,VALID,91,VALID,0.380814,
2007-11-20, 01:24:00,VALID,918.251,VALID,0,VALID,100,VALID,0.0849042,VALID,19.8049,VALID,90,VALID,0.390811,
2007-11-20, 01:25:00,VALID,918.253,VALID,0,VALID,100,VALID,0,VALID,19.7727,VALID,90,VALID,0.486328,
2007-11-20, 01:26:00,VALID,918.266,VALID,0,VALID,100,VALID,0.0169808,VALID,19.74,VALID,90,VALID,0.351207,
2007-11-20, 01:27:00,VALID,918.264,VALID,0,VALID,100,VALID,-0.101885,VALID,19.735,VALID,90,VALID,0.253125,
2007-11-20, 01:28:00,VALID,918.274,VALID,0,VALID,100,VALID,-0.0849042,VALID,19.6993,VALID,80,VALID,0.267188,
2007-11-20, 01:29:00,VALID,918.282,VALID,0,VALID,100,VALID,-0.0679233,VALID,19.6669,VALID,80,VALID,0.0809295,
2007-11-20, 01:30:00,VALID,918.284,VALID,0,VALID,100,VALID,-0.101885,VALID,19.6636,VALID,80,VALID,0.0872713,
2007-11-20, 01:31:00,VALID,918.288,VALID,0,VALID,100,VALID,-0.101885,VALID,19.6604,VALID,80,VALID,0.0785256,
2007-11-20, 01:32:00,VALID,918.278,VALID,0,VALID,100,VALID,-0.101885,VALID,19.6409,VALID,80,VALID,0.674716,
2007-11-20, 01:33:00,VALID,918.282,VALID,0,VALID,100,VALID,-0.0849042,VALID,19.6309,VALID,78,VALID,0.519531,
2007-11-20, 01:34:00,VALID,918.296,VALID,0,VALID,100,VALID,-0.101885,VALID,19.6279,VALID,75,VALID,0.209872,
2007-11-20, 01:35:00,VALID,918.297,VALID,0,VALID,100,VALID,-0.101885,VALID,19.6571,VALID,75,VALID,0.0228516,
2007-11-20, 01:36:00,VALID,918.294,VALID,0,VALID,100,VALID,-0.0849042,VALID,19.6701,VALID,75,VALID,0,
2007-11-20, 01:37:00,VALID,918.291,VALID,0,VALID,100,VALID,-0.0509425,VALID,19.6798,VALID,75,VALID,0.00109012,
2007-11-20, 01:38:00,VALID,918.286,VALID,0,VALID,100,VALID,-0.0679233,VALID,19.6961,VALID,75,VALID,0.276389,
2007-11-20, 01:39:00,VALID,918.282,VALID,0,VALID,100,VALID,-0.0509425,VALID,19.7058,VALID,75,VALID,0.447856,
2007-11-20, 01:40:00,VALID,918.285,VALID,0,VALID,100,VALID,-0.0849042,VALID,19.712,VALID,75,VALID,0.326219,
2007-11-20, 01:41:00,VALID,918.283,VALID,0,VALID,100,VALID,-0.0679233,VALID,19.7445,VALID,75,VALID,0.429348,
2007-11-20, 01:42:00,VALID,918.282,VALID,0,VALID,100,VALID,0,VALID,19.7173,VALID,75,VALID,0.418069,
2007-11-20, 01:43:00,VALID,918.294,VALID,0,VALID,100,VALID,-0.0339617,VALID,19.7013,VALID,75,VALID,0.489258,
2007-11-20, 01:44:00,VALID,918.279,VALID,0,VALID,100,VALID,-0.0169808,VALID,19.6883,VALID,66,VALID,0.601389,
2007-11-20, 01:45:00,VALID,918.283,VALID,0,VALID,100,VALID,-0.0339617,VALID,19.6591,VALID,65,VALID,0.639436,
2007-11-20, 01:46:00,VALID,918.283,VALID,0,VALID,100,VALID,-0.0509425,VALID,19.6397,VALID,65,VALID,0.594322,
2007-11-20, 01:47:00,VALID,918.292,VALID,0,VALID,100,VALID,-0.0339617,VALID,19.6199,VALID,65,VALID,0.499428,
2007-11-20, 01:48:00,VALID,918.29,VALID,0,VALID,100,VALID,-0.0339617,VALID,19.6137,VALID,65,VALID,0.611861,
2007-11-20, 01:49:00,VALID,918.279,VALID,0,VALID,100,VALID,-0.0339617,VALID,19.5748,VALID,65,VALID,0.671875,
2007-11-20, 01:50:00,VALID,918.287,VALID,0,VALID,100,VALID,-0.0339617,VALID,19.5718,VALID,65,VALID,0.738889,
2007-11-20, 01:51:00,VALID,918.291,VALID,0,VALID,100,VALID,-0.0339617,VALID,19.5391,VALID,65,VALID,0.653088,
2007-11-20, 01:52:00,VALID,918.289,VALID,0,VALID,100,VALID,-0.0509425,VALID,19.5421,VALID,65,VALID,0.533346,
2007-11-20, 01:53:00,VALID,918.282,VALID,0,VALID,100,VALID,0,VALID,19.5388,VALID,55,VALID,0.40718,
2007-11-20, 01:54:00,VALID,918.268,VALID,0,VALID,100,VALID,-0.0169808,VALID,19.5586,VALID,55,VALID,0.377548,
2007-11-20, 01:55:00,VALID,918.271,VALID,0,VALID,100,VALID,0,VALID,19.5321,VALID,55,VALID,0.231105,
2007-11-20, 01:56:00,VALID,918.257,VALID,0,VALID,100,VALID,-0.0169808,VALID,19.5586,VALID,55,VALID,0.467797,
2007-11-20, 01:57:00,VALID,918.248,VALID,0,VALID,100,VALID,-0.0169808,VALID,19.578,VALID,55,VALID,0.550409,
2007-11-20, 01:58:00,VALID,918.252,VALID,0,VALID,100,VALID,-0.0509425,VALID,19.5845,VALID,56,VALID,0.525915,
2007-11-20, 01:59:00,VALID,918.242,VALID,0,VALID,100,VALID,0,VALID,19.5875,VALID,57,VALID,0.317336,
2007-11-20, 02:00:00,VALID,918.235,VALID,0,VALID,100,VALID,-0.0509425,VALID,19.604,VALID,57,VALID,0.266959,
2007-11-20, 02:01:00,VALID,918.216,VALID,0,VALID,100,VALID,-0.0169808,VALID,19.6172,VALID,57,VALID,0.305398,
2007-11-20, 02:02:00,VALID,918.212,VALID,0,VALID,100,VALID,-0.0509425,VALID,19.6332,VALID,57,VALID,0.512173,
2007-11-20, 02:03:00,VALID,918.191,VALID,0,VALID,100,VALID,-0.0339617,VALID,19.6264,VALID,57,VALID,0.527435,
2007-11-20, 02:04:00,VALID,918.178,VALID,0,VALID,100,VALID,-0.0509425,VALID,19.6437,VALID,57,VALID,0.526172,
2007-11-20, 02:05:00,VALID,918.166,VALID,0,VALID,100,VALID,-0.0169808,VALID,19.6394,VALID,57,VALID,0.268924,
2007-11-20, 02:06:00,VALID,918.147,VALID,0,VALID,100,VALID,0,VALID,19.6559,VALID,57,VALID,0.0546875,
2007-11-20, 02:07:00,VALID,918.12,VALID,0,VALID,100,VALID,-0.0339617,VALID,19.6499,VALID,57,VALID,0.0609756,
2007-11-20, 02:08:00,VALID,918.112,VALID,0,VALID,100,VALID,-0.0339617,VALID,19.6432,VALID,57,VALID,0.000381098,
2007-11-20, 02:09:00,VALID,918.086,VALID,0,VALID,100,VALID,-0.0679233,VALID,19.6307,VALID,57,VALID,0.000952744,
2007-11-20, 02:10:00,VALID,918.046,VALID,0,VALID,100,VALID,-0.0339617,VALID,19.6107,VALID,57,VALID,0,
2007-11-20, 02:11:00,VALID,918.022,VALID,0,VALID,100,VALID,0,VALID,19.6077,VALID,57,VALID,0,
2007-11-20, 02:12:00,VALID,918.008,VALID,0,VALID,100,VALID,-0.0509425,VALID,19.607,VALID,57,VALID,0.000600962,
2007-11-20, 02:13:00,VALID,917.984,VALID,0,VALID,100,VALID,-0.0339617,VALID,19.6399,VALID,57,VALID,0.38151,
2007-11-20, 02:14:00,VALID,917.973,VALID,0,VALID,100,VALID,0,VALID,19.6392,VALID,57,VALID,0.299237,
2007-11-20, 02:15:00,VALID,917.959,VALID,0,VALID,100,VALID,-0.0169808,VALID,19.6496,VALID,57,VALID,0.0823864,
2007-11-20, 02:16:00,VALID,917.96,VALID,0,VALID,100,VALID,-0.0339617,VALID,19.6529,VALID,57,VALID,0,
2007-11-20, 02:17:00,VALID,917.931,VALID,0,VALID,100,VALID,-0.0339617,VALID,19.6202,VALID,57,VALID,0.0497159,
2007-11-20, 02:18:00,VALID,917.925,VALID,0,VALID,100,VALID,-0.0169808,VALID,19.6564,VALID,57,VALID,0,
2007-11-20, 02:19:00,VALID,917.906,VALID,0,VALID,100,VALID,0.0169808,VALID,19.6554,VALID,57,VALID,0.0745584,
2007-11-20, 02:20:00,VALID,917.894,VALID,0,VALID,100,VALID,0,VALID,19.6556,VALID,57,VALID,0.328472,
2007-11-20, 02:21:00,VALID,917.874,VALID,0,VALID,100,VALID,-0.0339617,VALID,19.6719,VALID,62,VALID,0.614397,
2007-11-20, 02:22:00,VALID,917.864,VALID,0,VALID,100,VALID,0,VALID,19.6881,VALID,67,VALID,0.542225,
2007-11-20, 02:23:00,VALID,917.852,VALID,0,VALID,100,VALID,-0.0169808,VALID,19.6913,VALID,67,VALID,0.559338,
2007-11-20, 02:24:00,VALID,917.841,VALID,0,VALID,100,VALID,0,VALID,19.6816,VALID,67,VALID,0.709847,
2007-11-20, 02:25:00,VALID,917.842,VALID,0,VALID,100,VALID,-0.0169808,VALID,19.6526,VALID,67,VALID,0.637784,
2007-11-20, 02:26:00,VALID,917.83,VALID,0,VALID,100,VALID,0,VALID,19.6459,VALID,69,VALID,0.527699,
2007-11-20, 02:27:00,VALID,917.83,VALID,0,VALID,100,VALID,0,VALID,19.6294,VALID,69,VALID,0.407138,
2007-11-20, 02:28:00,VALID,917.82,VALID,0,VALID,100,VALID,0.0169808,VALID,19.6392,VALID,69,VALID,0.0472561,
2007-11-20, 02:29:00,VALID,917.821,VALID,0,VALID,100,VALID,0,VALID,19.6526,VALID,69,VALID,0.177871,
2007-11-20, 02:30:00,VALID,917.825,VALID,0,VALID,100,VALID,0,VALID,19.6589,VALID,69,VALID,0.27939,
2007-11-20, 02:31:00,VALID,917.812,VALID,0,VALID,100,VALID,0,VALID,19.6786,VALID,69,VALID,0.417668,
2007-11-20, 02:32:00,VALID,917.813,VALID,0,VALID,100,VALID,-0.0169808,VALID,19.6656,VALID,67,VALID,0.557617,
2007-11-20, 02:33:00,VALID,917.822,VALID,0,VALID,100,VALID,0,VALID,19.6167,VALID,55,VALID,0.566229,
2007-11-20, 02:34:00,VALID,917.822,VALID,0,VALID,100,VALID,0,VALID,19.5875,VALID,53,VALID,0.62221,
2007-11-20, 02:35:00,VALID,917.821,VALID,0,VALID,100,VALID,-0.0169808,VALID,19.5616,VALID,40,VALID,0.427989,
2007-11-20, 02:36:00,VALID,917.823,VALID,0,VALID,100,VALID,-0.0169808,VALID,19.5778,VALID,57,VALID,0.693164,
2007-11-20, 02:37:00,VALID,917.823,VALID,0,VALID,100,VALID,-0.0339617,VALID,19.5942,VALID,75,VALID,0.290625,
2007-11-20, 02:38:00,VALID,917.825,VALID,0,VALID,100,VALID,-0.0339617,VALID,19.5715,VALID,62,VALID,0.261719,
2007-11-20, 02:39:00,VALID,917.821,VALID,0,VALID,100,VALID,-0.0169808,VALID,19.565,VALID,42,VALID,0.300686,
2007-11-20, 02:40:00,VALID,917.825,VALID,0,VALID,100,VALID,-0.0169808,VALID,19.5583,VALID,46,VALID,0.339648,
2007-11-20, 02:41:00,VALID,917.808,VALID,0,VALID,100,VALID,-0.0169808,VALID,19.5521,VALID,44,VALID,0.035061,
2007-11-20, 02:42:00,VALID,917.812,VALID,0,VALID,100,VALID,-0.0169808,VALID,19.572,VALID,44,VALID,0.0113281,
2007-11-20, 02:43:00,VALID,917.81,VALID,0,VALID,100,VALID,-0.0339617,VALID,19.5845,VALID,44,VALID,0,
2007-11-20, 02:44:00,VALID,917.797,VALID,0,VALID,100,VALID,-0.0339617,VALID,19.5947,VALID,44,VALID,0.00363372,
2007-11-20, 02:45:00,VALID,917.787,VALID,0,VALID,100,VALID,-0.0169808,VALID,19.6174,VALID,44,VALID,0.0887957,
2007-11-20, 02:46:00,VALID,917.771,VALID,0,VALID,100,VALID,-0.0339617,VALID,19.6434,VALID,44,VALID,0.283253,
2007-11-20, 02:47:00,VALID,917.757,VALID,0,VALID,100,VALID,0,VALID,19.6626,VALID,44,VALID,0.530895,
2007-11-20, 02:48:00,VALID,917.753,VALID,0,VALID,100,VALID,-0.0339617,VALID,19.6724,VALID,58,VALID,0.675967,
2007-11-20, 02:49:00,VALID,917.758,VALID,0,VALID,100,VALID,0,VALID,19.6953,VALID,70,VALID,0.709794,
2007-11-20, 02:50:00,VALID,917.745,VALID,0,VALID,100,VALID,-0.0169808,VALID,19.6758,VALID,70,VALID,0.662574,
2007-11-20, 02:51:00,VALID,917.746,VALID,0,VALID,100,VALID,0,VALID,19.6691,VALID,70,VALID,0.486328,
2007-11-20, 02:52:00,VALID,917.755,VALID,0,VALID,100,VALID,0,VALID,19.6786,VALID,70,VALID,0.31064,
2007-11-20, 02:53:00,VALID,917.751,VALID,0,VALID,100,VALID,-0.0339617,VALID,19.6531,VALID,70,VALID,0.282484,
2007-11-20, 02:54:00,VALID,917.762,VALID,0,VALID,100,VALID,-0.0169808,VALID,19.6234,VALID,46,VALID,0.450521,
2007-11-20, 02:55:00,VALID,917.757,VALID,0,VALID,100,VALID,-0.0339617,VALID,19.5917,VALID,48,VALID,0.419969,
2007-11-20, 02:56:00,VALID,917.763,VALID,0,VALID,100,VALID,0,VALID,19.5843,VALID,62,VALID,0.544271,
2007-11-20, 02:57:00,VALID,917.767,VALID,0,VALID,100,VALID,0,VALID,19.598,VALID,62,VALID,0.502148,
2007-11-20, 02:58:00,VALID,917.78,VALID,0,VALID,100,VALID,0,VALID,19.5785,VALID,62,VALID,0.509341,
2007-11-20, 02:59:00,VALID,917.774,VALID,0,VALID,100,VALID,-0.0169808,VALID,19.5453,VALID,62,VALID,0.499273,
2007-11-20, 03:00:00,VALID,917.777,VALID,0,VALID,100,VALID,0.0169808,VALID,19.5456,VALID,62,VALID,0.208807,
2007-11-20, 03:01:00,VALID,917.77,VALID,0,VALID,100,VALID,-0.0509425,VALID,19.5526,VALID,62,VALID,0.0496094,
2007-11-20, 03:02:00,VALID,917.771,VALID,0,VALID,100,VALID,-0.0169808,VALID,19.5294,VALID,62,VALID,0,
2007-11-20, 03:03:00,VALID,917.772,VALID,0,VALID,100,VALID,-0.0169808,VALID,19.5483,VALID,62,VALID,0.0128997,
2007-11-20, 03:04:00,VALID,917.768,VALID,0,VALID,100,VALID,0,VALID,19.578,VALID,62,VALID,0.0357143,
2007-11-20, 03:05:00,VALID,917.775,VALID,0,VALID,100,VALID,0,VALID,19.5551,VALID,62,VALID,0.10473,
2007-11-20, 03:06:00,VALID,917.774,VALID,0,VALID,100,VALID,0,VALID,19.5226,VALID,62,VALID,0,
2007-11-20, 03:07:00,VALID,917.78,VALID,0,VALID,100,VALID,0.0169808,VALID,19.4834,VALID,62,VALID,0,
2007-11-20, 03:08:00,VALID,917.778,VALID,0,VALID,100,VALID,0,VALID,19.4902,VALID,62,VALID,0,
2007-11-20, 03:09:00,VALID,917.776,VALID,0,VALID,100,VALID,0,VALID,19.4937,VALID,62,VALID,0,
2007-11-20, 03:10:00,VALID,917.761,VALID,0,VALID,100,VALID,0,VALID,19.4902,VALID,70,VALID,0.553735,
2007-11-20, 03:11:00,VALID,917.751,VALID,0,VALID,100,VALID,0.0169808,VALID,19.4999,VALID,48,VALID,0.461115,
2007-11-20, 03:12:00,VALID,917.751,VALID,0,VALID,100,VALID,-0.101885,VALID,19.5016,VALID,41,VALID,0.425967,
2007-11-20, 03:13:00,VALID,917.745,VALID,0,VALID,100,VALID,-0.0849042,VALID,19.5016,VALID,54,VALID,0.668899,
2007-11-20, 03:14:00,VALID,917.727,VALID,0,VALID,100,VALID,-0.101885,VALID,19.4947,VALID,46,VALID,0.510691,
2007-11-20, 03:15:00,VALID,917.719,VALID,0,VALID,100,VALID,-0.0679233,VALID,19.5176,VALID,46,VALID,0.415968,
2007-11-20, 03:16:00,VALID,917.706,VALID,0,VALID,100,VALID,-0.118866,VALID,19.5508,VALID,46,VALID,0.450581,
2007-11-20, 03:17:00,VALID,917.702,VALID,0,VALID,100,VALID,-0.101885,VALID,19.5665,VALID,47,VALID,0.491642,
2007-11-20, 03:18:00,VALID,917.686,VALID,0,VALID,100,VALID,-0.0849042,VALID,19.5598,VALID,46,VALID,0.496394,
2007-11-20, 03:19:00,VALID,917.687,VALID,0,VALID,100,VALID,-0.135847,VALID,19.5508,VALID,46,VALID,0.422585,
2007-11-20, 03:20:00,VALID,917.663,VALID,0,VALID,100,VALID,-0.101885,VALID,19.5436,VALID,47,VALID,0.544457,
2007-11-20, 03:21:00,VALID,917.674,VALID,0,VALID,100,VALID,-0.0679233,VALID,19.5406,VALID,47,VALID,0.436942,
2007-11-20, 03:22:00,VALID,917.673,VALID,0,VALID,100,VALID,-0.101885,VALID,19.5565,VALID,47,VALID,0.4625,
2007-11-20, 03:23:00,VALID,917.675,VALID,0,VALID,100,VALID,-0.135847,VALID,19.5598,VALID,47,VALID,0.367599,
2007-11-20, 03:24:00,VALID,917.679,VALID,0,VALID,100,VALID,-0.118866,VALID,19.5595,VALID,47,VALID,0.21895,
2007-11-20, 03:25:00,VALID,917.68,VALID,0,VALID,100,VALID,-0.118866,VALID,19.6052,VALID,47,VALID,0.150618,
2007-11-20, 03:26:00,VALID,917.687,VALID,0,VALID,100,VALID,-0.101885,VALID,19.6085,VALID,47,VALID,0.376953,
2007-11-20, 03:27:00,VALID,917.705,VALID,0,VALID,100,VALID,0,VALID,19.6005,VALID,47,VALID,0.472917,
2007-11-20, 03:28:00,VALID,917.7,VALID,0,VALID,100,VALID,0.0169808,VALID,19.6232,VALID,47,VALID,0.436012,
2007-11-20, 03:29:00,VALID,917.699,VALID,0,VALID,100,VALID,-0.0169808,VALID,19.6299,VALID,47,VALID,0.177912,
2007-11-20, 03:30:00,VALID,917.704,VALID,0,VALID,100,VALID,0.0169808,VALID,19.6459,VALID,47,VALID,0,
2007-11-20, 03:31:00,VALID,917.717,VALID,0,VALID,100,VALID,0,VALID,19.6524,VALID,47,VALID,0,
2007-11-20, 03:32:00,VALID,917.715,VALID,0,VALID,100,VALID,-0.0169808,VALID,19.6621,VALID,47,VALID,0,
2007-11-20, 03:33:00,VALID,917.711,VALID,0,VALID,100,VALID,0,VALID,19.6521,VALID,47,VALID,0,
2007-11-20, 03:34:00,VALID,917.694,VALID,0,VALID,100,VALID,0.0169808,VALID,19.6427,VALID,47,VALID,0,
2007-11-20, 03:35:00,VALID,917.677,VALID,0,VALID,100,VALID,0,VALID,19.6299,VALID,46,VALID,0,
2007-11-20, 03:36:00,VALID,917.667,VALID,0,VALID,100,VALID,0,VALID,19.6394,VALID,46,VALID,0,
2007-11-20, 03:37:00,VALID,917.665,VALID,0,VALID,100,VALID,0,VALID,19.6459,VALID,46,VALID,0,
2007-11-20, 03:38:00,VALID,917.652,VALID,0,VALID,100,VALID,0.0169808,VALID,19.6394,VALID,46,VALID,0,
2007-11-20, 03:39:00,VALID,917.641,VALID,0,VALID,100,VALID,0,VALID,19.6364,VALID,46,VALID,0,
2007-11-20, 03:40:00,VALID,917.641,VALID,0,VALID,100,VALID,0,VALID,19.6269,VALID,47,VALID,0.119141,
2007-11-20, 03:41:00,VALID,917.634,VALID,0,VALID,100,VALID,0,VALID,19.6429,VALID,46,VALID,0.233994,
2007-11-20, 03:42:00,VALID,917.651,VALID,0,VALID,100,VALID,-0.135847,VALID,19.6539,VALID,46,VALID,0.146019,
2007-11-20, 03:43:00,VALID,917.649,VALID,0,VALID,100,VALID,-0.101885,VALID,19.6798,VALID,47,VALID,0.0287109,
2007-11-20, 03:44:00,VALID,917.65,VALID,0,VALID,100,VALID,-0.101885,VALID,19.6963,VALID,48,VALID,0.526972,